When you browse on this site, cookies collect data to enhance your experience and personalize the content and advertising you see.
Visit our Privacy Policy to learn more. By continuing to use the site, you agree to this use of cookies and data.
  • In Hungary
  • List of Countries
  • For 7 days
  • Water Temperature
  • Satellite Maps
  • Weather Map
  • News
  • Weather Widgets
  • user-avatar
    Login

    Hourly Weather Marsa Alam

    Today, 18 January, Friday

    Time Temperature Precipitation Wind Pressure Humidity
    00:00 +10°C° 0 mm 1 mps 719 mmHg 66%
    01:00 +10°C° 0 mm 1 mps 718 mmHg 67%
    02:00 +9°C° 0 mm 2 mps 718 mmHg 70%
    03:00 +9°C° 0 mm 2 mps 718 mmHg 73%
    04:00 +8°C° 0 mm 2 mps 718 mmHg 76%
    05:00 +8°C° 0 mm 2 mps 718 mmHg 79%
    06:00 +9°C° 0 mm 2 mps 718 mmHg 74%
    07:00 +10°C° 0 mm 2 mps 718 mmHg 70%
    08:00 +13°C° 0 mm 2 mps 718 mmHg 65%
    09:00 +13°C° 0 mm 3 mps 718 mmHg 59%
    10:00 +16°C° 0 mm 3 mps 719 mmHg 53%
    11:00 +18°C° 0 mm 4 mps 719 mmHg 47%
    12:00 +18°C° 0 mm 4 mps 719 mmHg 45%
    13:00 +19°C° 0 mm 4 mps 718 mmHg 42%
    14:00 +20°C° 0 mm 4 mps 718 mmHg 40%
    15:00 +19°C° 0 mm 4 mps 718 mmHg 44%
    16:00 +18°C° 0 mm 4 mps 718 mmHg 47%
    17:00 +17°C° 0 mm 4 mps 717 mmHg 51%
    18:00 +16°C° 0 mm 3 mps 717 mmHg 57%
    19:00 +15°C° 0 mm 2 mps 717 mmHg 63%
    20:00 +14°C° 0 mm 2 mps 717 mmHg 69%
    21:00 +14°C° 0 mm 2 mps 717 mmHg 70%
    22:00 +13°C° 0 mm 1 mps 717 mmHg 71%
    23:00 +12°C° 0 mm 1 mps 717 mmHg 72%

    Tomorrow, 19 January, Saturday

    Time Temperature Precipitation Wind Pressure Humidity
    00:00 +12°C° 0 mm 1 mps 717 mmHg 71%
    01:00 +12°C° 0 mm 1 mps 717 mmHg 70%
    02:00 +11°C° 0 mm 1 mps 717 mmHg 69%
    03:00 +11°C° 0 mm 1 mps 717 mmHg 68%
    04:00 +11°C° 0 mm 1 mps 716 mmHg 68%
    05:00 +10°C° 0 mm 1 mps 716 mmHg 67%
    06:00 +12°C° 0 mm 1 mps 717 mmHg 61%
    07:00 +13°C° 0 mm 2 mps 717 mmHg 55%
    08:00 +14°C° 0 mm 2 mps 718 mmHg 49%
    09:00 +16°C° 0 mm 2 mps 718 mmHg 44%
    10:00 +18°C° 0 mm 3 mps 718 mmHg 39%
    11:00 +19°C° 0 mm 3 mps 718 mmHg 34%
    12:00 +20°C° 0 mm 3 mps 718 mmHg 32%
    13:00 +21°C° 0 mm 3 mps 718 mmHg 31%
    14:00 +21°C° 0 mm 3 mps 717 mmHg 29%
    15:00 +20°C° 0 mm 3 mps 717 mmHg 33%
    16:00 +20°C° 0 mm 3 mps 717 mmHg 38%
    17:00 +19°C° 0 mm 3 mps 717 mmHg 42%
    18:00 +18°C° 0 mm 3 mps 717 mmHg 49%
    19:00 +17°C° 0 mm 2 mps 717 mmHg 56%
    20:00 +15°C° 0 mm 1 mps 718 mmHg 64%
    21:00 +15°C° 0 mm 1 mps 718 mmHg 66%
    22:00 +14°C° 0 mm 1 mps 718 mmHg 68%
    23:00 +14°C° 0 mm 1 mps 718 mmHg 71%

    Day after tomorrow, 20 January, Sunday

    Time Temperature Precipitation Wind Pressure Humidity
    00:00 +13°C° 0 mm 1 mps 717 mmHg 70%
    01:00 +13°C° 0 mm 1 mps 717 mmHg 69%
    02:00 +12°C° 0 mm 1 mps 717 mmHg 68%
    03:00 +12°C° 0 mm 1 mps 717 mmHg 67%
    04:00 +12°C° 0 mm 1 mps 717 mmHg 67%
    05:00 +12°C° 0 mm 1 mps 716 mmHg 66%
    06:00 +13°C° 0 mm 1 mps 717 mmHg 60%
    07:00 +15°C° 0 mm 1 mps 717 mmHg 54%
    08:00 +16°C° 0 mm 1 mps 718 mmHg 48%
    09:00 +19°C° 0 mm 1 mps 718 mmHg 41%
    10:00 +19°C° 0 mm 2 mps 718 mmHg 35%
    11:00 +21°C° 0 mm 2 mps 718 mmHg 29%
    12:00 +23°C° 0 mm 2 mps 718 mmHg 28%
    13:00 +23°C° 0 mm 2 mps 717 mmHg 26%
    14:00 +24°C° 0 mm 3 mps 717 mmHg 25%
    15:00 +22°C° 0 mm 3 mps 716 mmHg 30%
    16:00 +21°C° 0 mm 3 mps 716 mmHg 36%
    17:00 +20°C° 0 mm 3 mps 716 mmHg 41%
    18:00 +19°C° 0 mm 2 mps 716 mmHg 48%
    19:00 +18°C° 0 mm 2 mps 716 mmHg 55%
    20:00 +16°C° 0 mm 1 mps 717 mmHg 61%
    21:00 +16°C° 0 mm 1 mps 717 mmHg 62%
    22:00 +15°C° 0 mm 1 mps 717 mmHg 64%
    23:00 +14°C° 0 mm 0 mps 716 mmHg 65%

    21 January, Monday

    Time Temperature Precipitation Wind Pressure Humidity
    00:00 +15°C° 0 mm 1 mps 716 mmHg 64%
    01:00 +14°C° 0 mm 1 mps 716 mmHg 63%
    02:00 +14°C° 0 mm 1 mps 716 mmHg 62%
    03:00 +14°C° 0 mm 1 mps 716 mmHg 62%
    04:00 +13°C° 0 mm 1 mps 716 mmHg 62%
    05:00 +13°C° 0 mm 1 mps 716 mmHg 62%
    06:00 +15°C° 0 mm 1 mps 716 mmHg 56%
    07:00 +16°C° 0 mm 1 mps 716 mmHg 51%
    08:00 +18°C° 0 mm 1 mps 717 mmHg 45%
    09:00 +20°C° 0 mm 1 mps 717 mmHg 38%
    10:00 +22°C° 0 mm 1 mps 717 mmHg 32%
    11:00 +24°C° 0 mm 1 mps 717 mmHg 25%
    12:00 +25°C° 0 mm 1 mps 717 mmHg 23%
    13:00 +25°C° 0 mm 1 mps 716 mmHg 21%
    14:00 +26°C° 0 mm 1 mps 716 mmHg 19%
    15:00 +25°C° 0 mm 2 mps 716 mmHg 24%
    16:00 +24°C° 0 mm 2 mps 716 mmHg 28%
    17:00 +23°C° 0 mm 2 mps 716 mmHg 32%
    18:00 +21°C° 0 mm 2 mps 716 mmHg 39%
    19:00 +20°C° 0 mm 2 mps 716 mmHg 45%
    20:00 +20°C° 0 mm 1 mps 717 mmHg 52%
    21:00 +19°C° 0 mm 1 mps 716 mmHg 54%
    22:00 +19°C° 0 mm 1 mps 716 mmHg 56%
    23:00 +18°C° 0 mm 1 mps 716 mmHg 58%

    22 January, Tuesday

    Time Temperature Precipitation Wind Pressure Humidity
    00:00 +16°C° 0 mm 1 mps 716 mmHg 57%
    01:00 +16°C° 0 mm 1 mps 716 mmHg 56%
    02:00 +15°C° 0 mm 1 mps 715 mmHg 54%
    03:00 +15°C° 0 mm 1 mps 715 mmHg 52%
    04:00 +15°C° 0 mm 1 mps 715 mmHg 49%
    05:00 +14°C° 0 mm 1 mps 715 mmHg 47%
    06:00 +16°C° 0 mm 1 mps 716 mmHg 41%
    07:00 +18°C° 0 mm 1 mps 716 mmHg 35%
    08:00 +20°C° 0 mm 1 mps 717 mmHg 30%
    09:00 +21°C° 0 mm 1 mps 717 mmHg 26%
    10:00 +23°C° 0 mm 2 mps 717 mmHg 22%
    11:00 +25°C° 0 mm 2 mps 717 mmHg 18%
    12:00 +25°C° 0 mm 2 mps 716 mmHg 19%
    13:00 +26°C° 0 mm 2 mps 716 mmHg 19%
    14:00 +26°C° 0 mm 2 mps 715 mmHg 20%
    15:00 +25°C° 0 mm 2 mps 715 mmHg 25%
    16:00 +24°C° 0 mm 2 mps 715 mmHg 30%
    17:00 +23°C° 0 mm 2 mps 715 mmHg 35%
    18:00 +21°C° 0 mm 2 mps 715 mmHg 43%
    19:00 +20°C° 0 mm 1 mps 715 mmHg 50%
    20:00 +19°C° 0 mm 1 mps 715 mmHg 57%
    21:00 +18°C° 0 mm 1 mps 715 mmHg 59%
    22:00 +16°C° 0 mm 0 mps 715 mmHg 61%
    23:00 +15°C° 0 mm 0 mps 715 mmHg 62%

    23 January, Wednesday

    Time Temperature Precipitation Wind Pressure Humidity
    00:00 +15°C° 0 mm 0 mps 715 mmHg 61%
    01:00 +14°C° 0 mm 0 mps 714 mmHg 61%
    02:00 +14°C° 0 mm 0 mps 714 mmHg 60%
    03:00 +13°C° 0 mm 0 mps 714 mmHg 60%
    04:00 +13°C° 0 mm 0 mps 714 mmHg 60%
    05:00 +13°C° 0 mm 0 mps 714 mmHg 60%
    06:00 +14°C° 0 mm 0 mps 715 mmHg 54%
    07:00 +18°C° 0 mm 1 mps 715 mmHg 48%
    08:00 +20°C° 0 mm 1 mps 716 mmHg 42%
    09:00 +21°C° 0 mm 1 mps 716 mmHg 37%
    10:00 +23°C° 0 mm 1 mps 716 mmHg 31%
    11:00 +24°C° 0 mm 1 mps 716 mmHg 26%
    12:00 +25°C° 0 mm 1 mps 716 mmHg 25%
    13:00 +25°C° 0 mm 2 mps 715 mmHg 24%
    14:00 +26°C° 0 mm 2 mps 715 mmHg 24%
    15:00 +25°C° 0 mm 2 mps 714 mmHg 29%
    16:00 +24°C° 0 mm 2 mps 714 mmHg 34%
    17:00 +23°C° 0 mm 2 mps 714 mmHg 39%
    18:00 +20°C° 0 mm 2 mps 714 mmHg 48%
    19:00 +20°C° 0 mm 1 mps 714 mmHg 56%
    20:00 +19°C° 0 mm 1 mps 714 mmHg 64%
    21:00 +18°C° 0 mm 1 mps 714 mmHg 66%
    22:00 +18°C° 0 mm 1 mps 714 mmHg 68%
    23:00 +16°C° 0 mm 1 mps 714 mmHg 70%
    Show more